Weather in Cherepanovo

Russia / Tyumen Oblast     57°42′06″N   65°59′47″E
temp.,
°C
wind,
m/s
gust,
m/s
humid.,
%
clouds,
%
prec.,
mm/h
press.,
hPa
HPBL,
m
2 august, mon
mon223:00+17w39940 2.4 1006166
02:00+15w310960 0.0 1006211
05:00+14w39975 0.0 1008211
08:00+18wnw48831 0.0 1008456
11:00+22wnw5851100 0.0 10091376
14:00+24wnw574383 0.0 10092183
17:00+24nw3648100 0.0 10091468
20:00+19w236850 0.0 101037
3 august, tue
tue323:00+16wnw227212 0.0 101021
02:00+16wsw247426 0.0 101062
05:00+15w2787100 0.1 1010179
08:00+19w3583100 0.2 1010355
11:00+23nw346217 0.2 10091082
14:00+23nnw35720 2.3 10091016
17:00+20nw367189 2.6 1010189
20:00+20n117296 0.0 101111
4 august, wed
wed423:00+15ene22880 0.0 101227
02:00+14e00905 0.0 101311
05:00+13n11905 0.0 101411
08:00+19ene11655 0.0 1014236
11:00+24nne11465 0.0 1014989
14:00+26nnw1240100 0.0 10131889
17:00+26ne1342100 0.0 10131750
20:00+21sse2264100 0.0 101224
5 august, thu
thu523:00+19s2363100 0.0 101257
02:00+18s3971100 0.1 1012202
05:00+18ssw3973100 0.1 1012206
08:00+19s3968100 0.0 1011307
11:00+23s475848 0.2 1011555
14:00+26sse565452 1.0 10101068
17:00+24se477489 2.1 1009478
20:00+20sse4119373 1.9 1007299
6 august, fri
fri623:00+17ssw259764 3.2 1008123
02:00+16sse239999 0.3 100660
05:00+16wnw249999 0.4 1006101
08:00+17wnw2598100 1.8 1007529
11:00+17nw3798100 2.9 1007362
14:00+18nw3695100 1.3 1008428
17:00+19nnw358325 1.3 1009544
20:00+17nnw49920 0.6 1009444